This is the latest recevied weather packets stored in our database for station/object K7YVO. If no packets are shown the sender has not sent any weather packets the latest 1 day(s).
| Time | Temp. | Humidity | Pressure | Rain* | Wind** | Luminosity | Snow |
|---|---|---|---|---|---|---|---|
| 1778081604 | 12.78° C | 90% | 1023 hPa | 0 mm | - | 32 W/m² | - |
| 1778081301 | 12.78° C | 91% | 1022.6 hPa | 0 mm | - | 36 W/m² | - |
| 1778080998 | 12.78° C | 91% | 1022.9 hPa | 0 mm | - | 31 W/m² | - |
| 1778080697 | 12.78° C | 91% | 1022.6 hPa | 0 mm | - | 45 W/m² | - |
| 1778080393 | 12.78° C | 91% | 1022.8 hPa | 0 mm | - | 46 W/m² | - |
| 1778080090 | 12.78° C | 91% | 1022.5 hPa | 0 mm | - | 38 W/m² | - |
| 1778079484 | 13.33° C | 90% | 1022.3 hPa | 0 mm | - | 38 W/m² | - |
| 1778079180 | 13.33° C | 90% | 1022.4 hPa | 0 mm | - | 46 W/m² | - |
| 1778078878 | 13.89° C | 89% | 1021.9 hPa | 0 mm | - | 60 W/m² | - |
| 1778077969 | 13.33° C | 90% | 1021.8 hPa | 0 mm | - | 49 W/m² | - |
| 1778077366 | 12.78° C | 91% | 1022 hPa | 0 mm | - | 30 W/m² | - |
| 1778074942 | 12.78° C | 89% | 1021.8 hPa | 0 mm | - | 14 W/m² | - |
| 1778074033 | 12.78° C | 89% | 1021.7 hPa | 0 mm | - | 7 W/m² | - |
| 1778071913 | 12.78° C | 89% | 1021.6 hPa | 0 mm | - | 1 W/m² | - |
| 1778071309 | 12.78° C | 89% | 1021.6 hPa | 0 mm | - | 0 W/m² | - |
| 1778071006 | 12.78° C | 89% | 1021.3 hPa | 0 mm | - | 0 W/m² | - |
| 1778070401 | 12.78° C | 88% | 1021.5 hPa | 0 mm | - | 0 W/m² | - |
| 1778069796 | 12.78° C | 89% | 1021.4 hPa | 0 mm | - | 0 W/m² | - |
| 1778069492 | 12.78° C | 89% | 1021.3 hPa | 0 mm | - | 0 W/m² | - |
| 1778068887 | 12.78° C | 89% | 1021.2 hPa | 0 mm | - | 0 W/m² | - |
| 1778068586 | 12.78° C | 88% | 1021.2 hPa | 0 mm | - | 0 W/m² | - |
| 1778066165 | 13.33° C | 91% | 1020.6 hPa | 0 mm | - | 0 W/m² | - |
| 1778065560 | 13.33° C | 91% | 1020.5 hPa | 0 mm | - | 0 W/m² | - |
| 1778065257 | 13.33° C | 91% | 1020.6 hPa | 0 mm | - | 0 W/m² | - |
| 1778064953 | 13.33° C | 91% | 1020.3 hPa | 0 mm | - | 0 W/m² | - |
* Rain latest hour (hover to see other rain measurements)
** Current wind speed in m/s (hover to see current wind gust speed)